Imperial, NE

2:38 PM MDT on May 28, 2017 (GMT -0600)
Imperial Municipal

Weather History for KIML - March, 2013

Change the Weather History Date:

Monday, March 25, 2013

  Actual Average Record
Temperature  
Mean Temperature 20 °F 42 °F  
Max Temperature 31 °F 57 °F 85 °F (1907)
Min Temperature 9 °F 28 °F 1 °F (1996)
Degree Days  
Heating Degree Days 45 23  
Month to date heating degree days 697 649  
Cooling Degree Days 0 0  
Month to date cooling degree days 0 0  
Year to date cooling degree days 0 0  
Moisture  
Dew Point 10 °F    
Average Humidity 71    
Maximum Humidity 88    
Minimum Humidity 53    
Precipitation  
Precipitation 0.00 in 0.04 in 0.96 in (1959)
Sea Level Pressure  
Sea Level Pressure 30.42 in    
Wind  
Wind Speed 10 mph (WNW)    
Max Wind Speed 18 mph    
Max Gust Speed 23 mph    
Visibility 10 miles    
Events      
T = Trace of Precipitation, MM = Missing Value Source: NWS Daily Summary

Daily Weather History Graph

Daily Weather History Graph

Search for Another Location

Airport or City:

Trip Planner

Search our weather history database for the weather conditions in past years. The results will help you decide how hot, cold, wet, or windy it might be!

Date:

Astronomy

Mar. 25, 2013 Rise Set
Actual Time 6:41 AM MDT 7:04 PM MDT
Civil Twilight 6:13 AM MDT 7:31 PM MDT
Nautical Twilight 5:41 AM MDT 8:03 PM MDT
Astronomical Twilight 5:08 AM MDT 8:36 PM MDT
Moon 5:37 PM MDT (3/25) 5:25 AM MDT (3/25)
Length of Visible Light 13h 17m
Length of Day
12h 22m
Waxing Gibbous, 97% of the Moon is Illuminated
Mar 25
Waxing Gibbous
Mar 27
Full
Apr 2
Last Quarter
Apr 10
New
Apr 18
First Quarter

Hourly Weather History & Observations

Time (MDT) Temp. Windchill Dew Point Humidity Pressure Visibility Wind Dir Wind Speed Gust Speed Precip Events Conditions
12:53 AM 12.9 °F -0.9 °F 6.1 °F 74% 30.38 in 10.0 mi NW 11.5 mph - N/A   Clear
1:53 AM 10.9 °F -3.4 °F 5.0 °F 77% 30.40 in 10.0 mi NW 11.5 mph - N/A   Clear
2:53 AM 10.9 °F -3.4 °F 5.0 °F 77% 30.39 in 10.0 mi WNW 11.5 mph - N/A   Clear
3:53 AM 12.0 °F -3.4 °F 5.0 °F 73% 30.39 in 10.0 mi NW 13.8 mph - N/A   Clear
4:53 AM 10.9 °F -3.4 °F 5.0 °F 77% 30.39 in 10.0 mi NW 11.5 mph - N/A   Clear
5:53 AM 10.0 °F -5.2 °F 3.9 °F 76% 30.41 in 10.0 mi NW 12.7 mph - N/A   Clear
6:53 AM 10.0 °F -4.5 °F 3.9 °F 76% 30.43 in 10.0 mi NW 11.5 mph - N/A   Clear
7:53 AM 10.9 °F -2.6 °F 5.0 °F 77% 30.46 in 10.0 mi WNW 10.4 mph - N/A   Clear
8:53 AM 15.1 °F 2.5 °F 8.1 °F 74% 30.47 in 10.0 mi NW 10.4 mph - N/A   Clear
9:53 AM 19.0 °F 5.6 °F 10.0 °F 68% 30.46 in 10.0 mi NW 13.8 mph - N/A   Clear
10:53 AM 21.0 °F 8.6 °F 10.9 °F 65% 30.46 in 10.0 mi NW 12.7 mph - N/A   Clear
11:53 AM 21.9 °F 8.2 °F 12.0 °F 66% 30.46 in 10.0 mi WNW 16.1 mph - N/A   Partly Cloudy
12:53 PM 25.0 °F 12.6 °F 12.9 °F 60% 30.44 in 10.0 mi NW 15.0 mph 21.9 mph N/A   Clear
1:53 PM 28.0 °F 16.5 °F 14.0 °F 56% 30.42 in 10.0 mi NNW 15.0 mph 21.9 mph N/A   Partly Cloudy
2:53 PM 28.9 °F 18.6 °F 15.1 °F 56% 30.40 in 10.0 mi NNW 12.7 mph - N/A   Clear
3:53 PM 30.0 °F 24.1 °F 15.1 °F 54% 30.40 in 10.0 mi Variable 5.8 mph 17.3 mph N/A   Clear
4:53 PM 30.9 °F 22.8 °F 15.1 °F 52% 30.39 in 10.0 mi NW 9.2 mph - N/A   Clear
5:53 PM 30.0 °F 24.1 °F 15.1 °F 54% 30.39 in 10.0 mi West 5.8 mph - N/A   Clear
6:53 PM 26.1 °F 20.5 °F 15.1 °F 63% 30.41 in 10.0 mi WSW 4.6 mph - N/A   Clear
7:53 PM 19.9 °F 14.9 °F 12.9 °F 74% 30.42 in 10.0 mi WSW 3.5 mph - N/A   Clear
8:53 PM 17.1 °F 7.6 °F 10.9 °F 77% 30.43 in 10.0 mi WSW 6.9 mph - N/A   Clear
9:53 PM 16.0 °F 5.3 °F 12.0 °F 84% 30.43 in 10.0 mi WSW 8.1 mph - N/A   Clear
10:53 PM 15.1 °F 5.2 °F 10.9 °F 84% 30.43 in 10.0 mi WSW 6.9 mph - N/A   Clear
11:53 PM 14.0 °F 2.9 °F 10.0 °F 84% 30.42 in 10.0 mi WSW 8.1 mph - N/A   Clear